Weather History for El Dorado, AR

Change the Weather History Date:

Monday, December 31, 2012

  Actual Average Record
Temperature  
Mean Temperature 43 °F 44 °F  
Max Temperature 51 °F 54 °F 80 °F (1951)
Min Temperature 35 °F 33 °F 6 °F (1983)
Degree Days  
Heating Degree Days 22 21  
Month to date heating degree days 442 606  
Since 1 July heating degree days 978 1087  
Cooling Degree Days 0 0  
Month to date cooling degree days 12 4  
Year to date cooling degree days 2288 2130  
Moisture  
Dew Point 42 °F    
Average Humidity 81    
Maximum Humidity 100    
Minimum Humidity 62    
Precipitation  
Precipitation 1.08 in 0.13 in 2.87 in (1944)
Month to date precipitation 6.06 5.18  
Year to date precipitation 44.41 52.92  
Snow  
Snow 0.00 in - - ()
Month to date snowfall T  
Since 1 July snowfall T  
Snow Depth 0.00 in    
Sea Level Pressure  
Sea Level Pressure 30.09 in    
Wind  
Wind Speed 5 mph (ENE)    
Max Wind Speed 14 mph    
Max Gust Speed 18 mph    
Visibility 7 miles    
Events Rain    
T = Trace of Precipitation, MM = Missing Value Source: NWS Daily Summary

Daily Weather History Graph

Daily Weather History Graph

Search for Another Location

Airport:

Trip Planner

Search our weather history database for the weather conditions in past years. The results will help you decide how hot, cold, wet, or windy it might be!

Date:

Astronomy

Dec. 31, 2012 Rise Set
Actual Time 7:14 AM CST 5:14 PM CST
Civil Twilight 6:47 AM CST 5:41 PM CST
Nautical Twilight 6:16 AM CST 6:12 PM CST
Astronomical Twilight 5:46 AM CST 6:43 PM CST
Moon 8:34 PM CST (12/31) 9:06 AM CST (12/31)
Length of Visible Light 10h 54m
Length of Day
9h 59m
Waning Gibbous, 90% of the Moon is Illuminated
Dec 31
Waning Gibbous
Jan 4
Last Quarter
Jan 11
New
Jan 18
First Quarter
Jan 26
Full

Hourly Weather History & Observations

Time (CST) Temp. Windchill Dew Point Humidity Pressure Visibility Wind Dir Wind Speed Gust Speed Precip Events Conditions
12:53 AM 35.1 °F 32.2 °F 30.0 °F 82% 30.30 in 10.0 mi ESE 3.5 mph - N/A   Clear
1:53 AM 37.0 °F - 30.0 °F 76% 30.31 in 10.0 mi Calm Calm - N/A   Clear
2:53 AM 36.0 °F - 30.0 °F 79% 30.29 in 10.0 mi Calm Calm - N/A   Clear
3:53 AM 37.9 °F - 30.0 °F 73% 30.27 in 10.0 mi Calm Calm - N/A   Overcast
4:53 AM 37.9 °F - 30.9 °F 76% 30.26 in 10.0 mi Calm Calm - N/A   Overcast
5:53 AM 39.0 °F - 30.9 °F 73% 30.27 in 10.0 mi Calm Calm - N/A   Overcast
6:53 AM 39.0 °F - 32.0 °F 76% 30.24 in 10.0 mi Calm Calm - N/A   Overcast
7:53 AM 39.9 °F 36.7 °F 32.0 °F 73% 30.22 in 10.0 mi East 4.6 mph - N/A   Overcast
8:53 AM 41.0 °F 38.0 °F 30.9 °F 67% 30.22 in 10.0 mi ESE 4.6 mph - N/A   Overcast
9:53 AM 44.1 °F 39.0 °F 32.0 °F 63% 30.20 in 10.0 mi SE 9.2 mph - 0.00 in   Overcast
10:53 AM 46.0 °F 43.1 °F 35.1 °F 66% 30.18 in 10.0 mi SSE 5.8 mph - N/A   Overcast
11:53 AM 48.9 °F - 39.0 °F 69% 30.14 in 10.0 mi SE 8.1 mph - N/A   Overcast
12:23 PM 48.2 °F - 42.8 °F 82% 30.11 in 4.0 mi SE 4.6 mph - 0.00 in Rain Light Rain
12:39 PM 48.2 °F - 42.8 °F 82% 30.10 in 10.0 mi SSE 4.6 mph - 0.00 in   Overcast
12:53 PM 48.0 °F - 43.0 °F 83% 30.09 in 9.0 mi SE 6.9 mph - 0.01 in Rain Light Rain
1:53 PM 48.9 °F - 43.0 °F 80% 30.04 in 10.0 mi SE 6.9 mph - 0.00 in Rain Light Rain
2:53 PM 50.0 °F - 45.0 °F 83% 30.03 in 5.0 mi SE 6.9 mph - 0.01 in Rain Light Rain
3:03 PM 50.0 °F - 46.4 °F 87% 30.02 in 7.0 mi SE 6.9 mph - 0.00 in Rain Light Rain
3:53 PM 50.0 °F - 46.9 °F 89% 30.02 in 4.0 mi SE 8.1 mph - 0.03 in Rain Light Rain
4:53 PM 50.0 °F - 48.0 °F 93% 29.98 in 8.0 mi SSE 8.1 mph - 0.03 in Rain Light Rain
5:53 PM 51.1 °F - 48.9 °F 92% 30.02 in 7.0 mi WNW 15.0 mph - 0.00 in Rain Light Rain
6:06 PM 51.8 °F - 50.0 °F 94% 30.03 in 2.5 mi NW 8.1 mph - 0.07 in Rain Heavy Rain
6:21 PM 51.8 °F - 50.0 °F 94% 30.02 in 2.0 mi Variable 3.5 mph - 0.16 in Rain Heavy Rain
6:45 PM 51.8 °F - 50.0 °F 94% 30.03 in 4.0 mi NW 4.6 mph - 0.23 in Rain Light Rain
6:53 PM 51.1 °F - 50.0 °F 96% 30.03 in 4.0 mi NNW 3.5 mph - 0.24 in Rain Rain
7:17 PM 51.8 °F - 48.2 °F 88% 30.03 in 4.0 mi NNW 6.9 mph - 0.04 in Rain Rain
7:53 PM 48.9 °F - 48.0 °F 97% 30.02 in 8.0 mi NNE 5.8 mph - 0.12 in Rain Light Rain
8:00 PM 48.2 °F - 48.2 °F 100% 30.02 in 7.0 mi North 5.8 mph - 0.01 in Rain Light Rain
8:10 PM 48.2 °F - 48.2 °F 100% 30.03 in 4.0 mi NNW 5.8 mph - 0.03 in Rain Rain
8:53 PM 48.0 °F - 46.0 °F 93% 30.03 in 4.0 mi North 4.6 mph - 0.15 in Rain Rain
9:10 PM 48.2 °F - 46.4 °F 93% 30.02 in 5.0 mi NE 3.5 mph - 0.05 in Rain Rain
9:18 PM 46.4 °F 44.3 °F 46.4 °F 100% 30.02 in 2.5 mi NE 4.6 mph - 0.11 in Rain Heavy Rain
9:34 PM 46.4 °F 44.3 °F 46.4 °F 100% 30.02 in 3.0 mi East 4.6 mph - 0.19 in Rain Heavy Rain
9:49 PM 46.4 °F 42.9 °F 46.4 °F 100% 30.01 in 3.0 mi ESE 6.9 mph - 0.23 in Rain Heavy Rain
9:53 PM 46.9 °F - 46.0 °F 97% 30.02 in 5.0 mi ESE 4.6 mph - 0.24 in Rain Light Rain
10:08 PM 48.2 °F - 46.4 °F 93% 30.03 in 5.0 mi Calm Calm - N/A Rain Rain
10:36 PM 48.2 °F - 46.4 °F 93% 30.03 in 3.0 mi Calm Calm - 0.13 in Rain Rain
10:43 PM 48.2 °F - 46.4 °F 93% 30.03 in 3.0 mi Calm Calm - 0.15 in Rain Rain
10:53 PM 48.0 °F - 46.0 °F 93% 30.04 in 3.0 mi NW 6.9 mph - 0.18 in Rain Rain
11:30 PM 46.4 °F 43.5 °F 46.4 °F 100% 30.03 in 7.0 mi NW 5.8 mph - 0.03 in Rain Light Rain
11:38 PM 46.4 °F 43.5 °F 46.4 °F 100% 30.03 in 6.0 mi NNW 5.8 mph - 0.04 in Rain Rain
11:53 PM 46.9 °F - 46.0 °F 97% 30.03 in 7.0 mi NW 4.6 mph - 0.06 in Rain Light Rain